Simultaneous Nadir Overpasses (SNOs) Predictions

Prediction of SNOs between AQUA and NOAA-19 Satellite Orbit:

Table of predicted SNOs for the next 14.0 days since TLE Epoch: 12/10/2011
Index Date Time (AQUA) AQUA Lat,Lon NOAA-19 Lat,Lon Distance(km) Time Diff (sec)
1 12/12/2011 16:29:34 -45.75, -35.12 -45.75, -35.11 0.22 28
2 12/14/2011 21:12:14 -51.47,-103.85 -51.48,-103.84 1.33 5
3 12/17/2011 01:09:28 42.76, 14.06 42.76, 14.06 0.14 45
4 12/19/2011 05:52:03 48.80, -54.76 48.80, -54.76 0.52 12
5 12/21/2011 10:35:06 53.14,-123.91 53.14,-123.92 0.56 22




NCC Satellite Simultaneous Nadir Overpasses (SNOs) Prediction Service
